Weather History for KBML - January, 2010

Change the Weather History Date:

Saturday, January 23, 2010

  Actual Average Record
Temperature  
Mean Temperature 8 °F -  
Max Temperature 30 °F 20 °F 46 °F (1997)
Min Temperature -14 °F 0 °F -22 °F (2000)
Degree Days  
Heating Degree Days 57    
Moisture  
Dew Point -4 °F    
Average Humidity 72    
Maximum Humidity 88    
Minimum Humidity 38    
Precipitation  
Precipitation 0.00 in - - ()
Sea Level Pressure  
Sea Level Pressure 30.30 in    
Wind  
Wind Speed 0 mph (North)    
Max Wind Speed 0 mph    
Max Gust Speed -    
Visibility 10 miles    
Events      
Averages and records for this station are not official NWS values.
T = Trace of Precipitation, MM = Missing Value Source: NWS Daily Summary

Daily Weather History Graph

Daily Weather History Graph

Search for Another Location

Airport or City:

Trip Planner

Search our weather history database for the weather conditions in past years. The results will help you decide how hot, cold, wet, or windy it might be!

Date:

Astronomy

Jan. 23, 2010 Rise Set
Actual Time 7:12 AM EST 4:41 PM EST
Civil Twilight 6:40 AM EST 5:12 PM EST
Nautical Twilight 6:05 AM EST 5:48 PM EST
Astronomical Twilight 5:30 AM EST 6:23 PM EST
Moon 10:24 AM EST (1/23) 12:28 AM EST (1/23)
Length of Visible Light 10h 32m
Length of Day
9h 28m
First Quarter, 53% of the Moon is Illuminated
Jan 23
First Quarter
Jan 30
Full
Feb 5
Last Quarter
Feb 13
New
Feb 21
First Quarter

Hourly Weather History & Observations

Time (EST) Temp. Dew Point Humidity Pressure Visibility Wind Dir Wind Speed Gust Speed Precip Events Conditions
12:52 AM -6.0 °F -11.0 °F 79% 30.24 in 10.0 mi Calm Calm - N/A   Clear
1:52 AM -9.0 °F -15.0 °F 75% 30.24 in 10.0 mi Calm Calm - N/A   Clear
2:52 AM -9.9 °F -16.1 °F 74% 30.25 in 10.0 mi Calm Calm - N/A   Clear
3:52 AM -9.9 °F -16.1 °F 74% 30.26 in 10.0 mi Calm Calm - N/A   Clear
4:52 AM -13.0 °F -18.0 °F 78% 30.28 in 10.0 mi Calm Calm - N/A   Clear
5:52 AM -11.9 °F -18.0 °F 74% 30.31 in 7.0 mi Calm Calm - N/A   Clear
6:52 AM -13.0 °F -20.0 °F 71% 30.34 in 9.0 mi Calm Calm - N/A   Clear
7:52 AM -14.1 °F -18.9 °F 79% 30.36 in 8.0 mi Calm Calm - N/A   Clear
8:52 AM -5.1 °F -9.0 °F 83% 30.37 in 9.0 mi Calm Calm - N/A   Clear
9:52 AM 3.9 °F -0.0 °F 84% 30.35 in 10.0 mi Calm Calm - N/A   Clear
10:52 AM 12.9 °F 10.0 °F 88% 30.33 in 9.0 mi Calm Calm - N/A   Clear
11:52 AM 21.9 °F 9.0 °F 58% 30.29 in 10.0 mi Calm Calm - N/A   Clear
12:52 PM 25.0 °F 6.1 °F 45% 30.27 in 10.0 mi Calm Calm - N/A   Clear
1:52 PM 28.0 °F 6.1 °F 39% 30.25 in 10.0 mi Calm Calm - N/A   Clear
2:52 PM 30.0 °F 7.0 °F 38% 30.25 in 10.0 mi Calm Calm - N/A   Clear
3:52 PM 28.0 °F 9.0 °F 45% 30.27 in 10.0 mi Calm Calm - N/A   Clear
4:52 PM 25.0 °F 8.1 °F 49% 30.29 in 10.0 mi Calm Calm - N/A   Clear
5:52 PM 12.9 °F 9.0 °F 84% 30.32 in 10.0 mi Calm Calm - N/A   Clear
6:52 PM 8.1 °F 3.9 °F 83% 30.35 in 10.0 mi Calm Calm - N/A   Clear
7:52 PM 3.9 °F 1.0 °F 88% 30.35 in 10.0 mi Calm Calm - N/A   Clear
8:52 PM 1.9 °F -2.0 °F 83% 30.35 in 10.0 mi Calm Calm - N/A   Clear
9:52 PM 1.9 °F -2.0 °F 83% 30.33 in 10.0 mi Calm Calm - N/A   Clear
10:52 PM -2.0 °F -6.0 °F 83% 30.31 in 10.0 mi Calm Calm - N/A   Clear
11:52 PM 1.0 °F -2.9 °F 83% 30.30 in 9.0 mi Calm Calm - N/A   Clear